Location: Emory University Observatory
(33.7903°N, 84.3267°W)
Time: 18:41:24
(UTC-04:00)

Tiangong 2 - Pass Details

Date: 11 October 2017
Orbit: 388 x 391 km, 42.8° (Epoch: 23 October)

Event Time Altitude Azimuth Distance (km) Brightness Sun altitude
Exits shadow 06:11:05 27° 352° (N) 788 2.5 -19.1°
Drops below altitude 10° 06:13:36 10° 43° (NE) 1,421 4.6 -18.6°
Sets 06:15:52 0° 56° (NE) 2,278 6.0 -18.1°
